Location: Unspecified
(40.7945°N, 0.0000°E)
Time: 20:43:18
(UTC+00:00)

Explorer 7 - Pass Details

Date: 24 June 2021
Orbit: 484 x 676 km, 50.3° (Epoch: 30 July)

Event Time Altitude Azimuth Distance (km) Brightness Sun altitude
Rises 20:53:10 0° 274° (W) 3,021 11.4 -12.2°
Reaches altitude 10° 20:55:46 10° 285° (WNW) 2,111 10.7 -12.5°
Maximum altitude 21:00:06 31° 347° (NNW) 1,188 9.2 -13.1°
Drops below altitude 10° 21:04:24 10° 49° (NE) 2,082 9.8 -13.6°
Sets 21:06:57 0° 60° (ENE) 2,974 10.4 -14.0°
